Location: Guadanolo
(41.9167°N, 12.9333°E)
Time: 22:02:23
(UTC+00:00)

Resurs 01 Rocket - Pass Details

Date: 16 September 2019
Orbit: 635 x 644 km, 98.0° (Epoch: 16 October)

Event Time Altitude Azimuth Distance (km) Brightness Sun altitude
Exits shadow 19:55:57 50° 292° (WNW) 815 2.4 -28.7°
Drops below altitude 10° 19:59:43 10° 338° (NNW) 2,043 4.9 -29.2°
Sets 20:01:58 0° 343° (NNW) 2,958 5.8 -29.6°
